Date String (YYYY-MM-DD hh:mm:ss) UTC,Instrument flags,Ambient pressure (hPa),Sample flow (lpm),Bypass flow (lpm),Sample temperature (°C),Ambient temperature (°C),ASC tube jacket temperature (°C),LED temperature (°C),Box temperature (°C),Sample RH (%),Span deviation,Mass concentration (μg/m³),Mass concentration (μg/m³),Mass concentration (μg/m³)
DateTimeUTC,F1_M11,P_M11,Q1_M11,Q2_M11,T1_M11,T2_M11,T3_M11,T4_M11,T5_M11,U1_M11,ZSPAN_M11,X0_M11,X2_M11,X1_M11
2021-08-23 09:00:00,,0826.8,5.00,0.00,29.3,28.7,00.0,38.5,31.1,20.9,0002.8,0031.09,0022.33,0021.21
2021-08-23 09:01:00,,0826.8,4.99,0.00,29.3,28.7,00.0,38.5,31.1,20.8,0002.6,0030.61,0022.16,0021.07
2021-08-23 09:02:00,,0826.8,5.02,0.00,29.3,28.7,00.0,38.5,31.1,20.8,0002.5,0030.20,0022.06,0020.96
2021-08-23 09:03:00,,0826.9,4.99,0.00,29.3,28.7,00.0,38.5,31.1,20.8,0002.5,0029.91,0021.98,0020.86
2021-08-23 09:04:00,,0826.8,5.00,0.00,29.3,28.6,00.0,38.5,31.1,20.8,0002.5,0029.52,0021.96,0020.80
2021-08-23 09:05:00,,0826.7,4.99,0.00,29.3,28.6,00.0,38.5,31.0,20.8,0002.8,0028.81,0021.85,0020.68
2021-08-23 09:06:00,,0826.9,5.01,0.00,29.3,28.6,00.0,38.5,31.0,20.8,0002.9,0028.50,0021.80,0020.61
2021-08-23 09:07:00,,0826.8,5.01,0.00,29.3,28.6,00.0,38.5,31.0,20.8,0002.9,0028.30,0021.67,0020.48
2021-08-23 09:08:00,,0827.0,5.00,0.00,29.3,27.7,00.0,38.4,30.8,20.8,0002.8,0028.21,0021.48,0020.33
2021-08-23 09:09:00,,0826.8,5.00,0.00,29.1,26.0,00.0,38.4,30.3,21.0,0002.8,0028.81,0021.42,0020.23
2021-08-23 09:10:00,,0826.8,5.00,0.00,29.0,25.9,00.0,38.3,30.3,21.2,0002.8,0028.68,0021.40,0020.19
2021-08-23 09:11:00,,0826.8,5.01,0.00,29.0,26.2,00.0,38.3,30.3,21.4,0002.7,0028.36,0021.35,0020.14
2021-08-23 09:12:00,,0826.8,4.99,0.00,28.9,26.6,00.0,38.3,30.5,21.5,0002.7,0028.58,0021.39,0020.11
2021-08-23 09:13:00,,0826.8,5.00,0.00,28.9,27.0,00.0,38.2,30.6,21.4,0002.8,0028.47,0021.33,0020.06
2021-08-23 09:14:00,,0826.7,5.00,0.00,28.9,27.3,00.0,38.2,30.6,21.4,0002.8,0028.35,0021.27,0020.01
2021-08-23 09:15:00,,0826.7,4.99,0.00,28.9,27.5,00.0,38.2,30.7,21.4,0002.9,0028.06,0021.19,0019.97
2021-08-23 09:16:00,,0826.7,5.01,0.00,28.9,27.6,00.0,38.2,30.7,21.4,0002.7,0028.12,0021.21,0019.98
2021-08-23 09:17:00,,0826.7,5.00,0.00,28.9,27.8,00.0,38.2,30.7,21.5,0002.6,0028.38,0021.30,0019.99
2021-08-23 09:18:00,,0826.7,5.01,0.00,29.0,27.9,00.0,38.2,30.7,21.6,0002.7,0028.36,0021.39,0020.07
2021-08-23 09:19:00,,0826.7,5.00,0.00,29.0,28.0,00.0,38.2,30.7,21.7,0002.6,0028.57,0021.58,0020.20
2021-08-23 09:20:00,,0826.7,5.00,0.00,29.0,28.0,00.0,38.2,30.7,21.5,0002.5,0028.81,0021.61,0020.23
2021-08-23 09:21:00,,0826.8,4.99,0.00,29.0,28.1,00.0,38.2,30.8,21.5,0002.6,0029.52,0021.55,0020.18
2021-08-23 09:22:00,,0826.8,5.00,0.00,29.0,28.2,00.0,38.2,30.8,21.5,0002.6,0030.07,0021.48,0020.14
2021-08-23 09:23:00,,0826.8,5.01,0.00,29.0,28.2,00.0,38.2,30.8,21.5,0002.7,0030.08,0021.36,0020.08
2021-08-23 09:24:00,,0826.8,4.99,0.00,29.0,28.2,00.0,38.2,30.8,21.4,0002.7,0030.62,0021.29,0020.01
2021-08-23 09:25:00,,0826.8,4.99,0.00,29.0,28.3,00.0,38.2,30.8,21.6,0002.7,0030.59,0021.20,0019.94
2021-08-23 09:26:00,,0827.1,5.01,0.00,29.0,28.3,00.0,38.2,30.8,22.0,0002.6,0030.54,0021.12,0019.87
2021-08-23 09:27:00,,0827.1,5.01,0.00,29.1,28.3,00.0,38.2,30.8,21.9,0002.6,0030.70,0021.01,0019.76
2021-08-23 09:28:00,,0827.2,5.00,0.00,29.1,28.3,00.0,38.2,30.8,21.8,0002.6,0030.63,0020.80,0019.64
2021-08-23 09:29:00,,0827.0,5.00,0.00,29.1,28.3,00.0,38.2,30.8,21.5,0002.6,0030.67,0020.67,0019.54
2021-08-23 09:30:00,,0827.1,4.99,0.00,29.1,28.4,00.0,38.2,30.8,21.5,0002.6,0030.36,0020.49,0019.39
2021-08-23 09:31:00,,0826.8,5.01,0.00,29.1,28.4,00.0,38.2,30.9,21.5,0002.8,0030.21,0020.36,0019.28
2021-08-23 09:32:00,,0826.9,5.01,0.00,29.1,28.4,00.0,38.2,30.9,21.5,0002.8,0029.12,0020.27,0019.20
2021-08-23 09:33:00,,0826.9,4.98,0.00,29.1,28.4,00.0,38.2,30.9,21.8,0002.8,0028.32,0020.20,0019.11
2021-08-23 09:34:00,,0826.9,5.00,0.00,29.1,28.4,00.0,38.2,30.9,21.8,0002.8,0027.89,0020.15,0019.07
2021-08-23 09:35:00,,0826.9,5.01,0.00,29.1,28.4,00.0,38.2,30.9,21.7,0002.9,0027.79,0020.18,0019.13
2021-08-23 09:36:00,,0826.9,5.00,0.00,29.1,28.4,00.0,38.2,30.9,22.0,0002.8,0028.01,0020.26,0019.17
2021-08-23 09:37:00,,0826.9,5.00,0.00,29.1,28.4,00.0,38.2,30.9,21.6,0002.8,0028.10,0020.31,0019.18
2021-08-23 09:38:00,,0826.9,5.00,0.00,29.1,28.4,00.0,38.2,30.9,21.9,0002.7,0028.34,0020.39,0019.25
2021-08-23 09:39:00,,0826.9,4.98,0.00,29.1,28.5,00.0,38.2,30.9,21.9,0003.0,0028.55,0020.47,0019.31
2021-08-23 09:40:00,,0826.9,5.00,0.00,29.1,28.5,00.0,38.2,30.9,21.5,0003.0,0028.27,0020.50,0019.32
2021-08-23 09:41:00,,0826.9,5.00,0.00,29.1,28.5,00.0,38.3,30.9,21.6,0003.0,0028.27,0020.51,0019.32
2021-08-23 09:42:00,,0826.9,5.00,0.00,29.1,28.5,00.0,38.3,30.9,21.6,0003.0,0027.30,0020.57,0019.32
2021-08-23 09:43:00,,0827.0,5.01,0.00,29.1,28.5,00.0,38.3,30.9,21.6,0003.0,0027.16,0020.58,0019.35
2021-08-23 09:44:00,,0826.9,5.01,0.00,29.1,28.5,00.0,38.3,30.9,21.7,0002.8,0027.18,0020.61,0019.38
2021-08-23 09:45:00,,0827.1,5.00,0.00,29.1,28.5,00.0,38.3,30.9,21.5,0002.7,0027.24,0020.58,0019.34
2021-08-23 09:46:00,,0827.0,4.99,0.00,29.1,28.5,00.0,38.3,30.9,21.5,0002.5,0027.17,0020.53,0019.25
2021-08-23 09:47:00,,0827.2,5.00,0.00,29.1,28.5,00.0,38.3,30.9,21.5,0002.6,0026.80,0020.42,0019.14
2021-08-23 09:48:00,,0827.3,5.00,0.00,29.1,28.5,00.0,38.3,30.9,21.7,0002.5,0027.29,0020.37,0019.09
2021-08-23 09:49:00,,0827.3,5.01,0.00,29.1,28.5,00.0,38.3,30.9,21.5,0002.5,0027.46,0020.25,0018.98
2021-08-23 09:50:00,,0827.0,5.00,0.00,29.2,28.5,00.0,38.3,30.9,21.5,0002.3,0027.12,0020.22,0018.91
2021-08-23 09:51:00,,0827.0,5.01,0.00,29.2,28.5,00.0,38.3,30.9,21.5,0002.4,0026.99,0020.17,0018.88
2021-08-23 09:52:00,,0827.0,4.99,0.00,29.2,28.5,00.0,38.3,30.9,21.5,0002.5,0026.83,0020.07,0018.80
2021-08-23 09:53:00,,0827.1,4.99,0.00,29.2,28.5,00.0,38.3,31.0,21.6,0002.5,0026.55,0019.94,0018.77
2021-08-23 09:54:00,,0826.9,5.00,0.00,29.2,28.6,00.0,38.3,31.0,21.6,0002.4,0026.52,0019.85,0018.72
2021-08-23 09:55:00,,0826.9,5.00,0.00,29.2,28.6,00.0,38.3,30.9,21.5,0002.5,0026.43,0019.75,0018.63
2021-08-23 09:56:00,,0826.9,5.00,0.00,29.2,28.6,00.0,38.3,31.0,21.4,0002.5,0026.68,0019.72,0018.58
2021-08-23 09:57:00,,0826.9,5.00,0.00,29.2,28.6,00.0,38.3,31.0,21.4,0002.6,0026.71,0019.64,0018.53
2021-08-23 09:58:00,,0826.9,5.00,0.00,29.2,28.6,00.0,38.3,30.9,21.4,0002.6,0026.71,0019.61,0018.50
2021-08-23 09:59:00,,0827.0,5.01,0.00,29.2,28.6,00.0,38.3,30.9,21.5,0002.7,0026.29,0019.60,0018.48
